Flag Weather past 2 weeks in Oberlin, Ohio, U.S.A.

Now
61 °F

Light rain. More clouds than sun.


Feels Like: 61 °F
Forecast: 40 / 59 °F
Wind: 30 mph from Southwest

Location: Lorain County Regional Airport

Current Time: Nov 24, 2014 at 11:39:05 AM

Latest Report: Nov 24, 2014 at 10:53 AM


Visibility: 10 mi

Pressure: 29.23 "Hg

Humidity: 67%

Dew point: 50 °F

Location of OberlinLocation

Historic Weather in Oberlin — Graph

°F

Oberlin temperature yesterday

Maximum temperature yesterday: 57 °F (at 6:53 PM)
Minimum temperature yesterday: 43 °F (at 6:53 AM)
Average temperature yesterday: 51 °F

Past Weeks' High & Low Weather Summary

 TemperatureHumidityPressure
High65 °F (Nov 11, 1:53 PM)100% (Nov 16, 8:53 PM)30.53 "Hg (Nov 16, 8:53 PM)
Low10 °F (Nov 18, 5:53 AM)35% (Nov 10, 1:53 PM)29.20 "Hg (Nov 24, 2:53 AM)
Average33 °F71%30.05 "Hg
* Reported Nov 9 9:53 AM — Nov 24 9:53 AM, Oberlin, Weather by CustomWeather, © 2014

Note: Actual official high and low records may vary slightly from our data, if they occured in-between our weather recording intervals... More about our weather records

Advertising

Oberlin weather history for previous 24 hours

 ConditionsComfort  
Time TempWeatherWind HumidityBarometerVisibility
9:53 AM
Nov 24
61 °FMostly cloudy.22 mph72%29.22 "Hg10 mi
8:53 AM60 °FLight rain. Scattered clouds.24 mph75%29.25 "Hg10 mi
7:53 AM59 °FMore clouds than sun.22 mph78%29.26 "Hg10 mi
6:53 AM59 °FCool.24 mph78%29.26 "Hg10 mi
5:53 AM58 °FLight rain. Mostly cloudy.26 mph84%29.26 "Hg10 mi
4:53 AM58 °FLight rain. Mostly cloudy.25 mph84%29.23 "Hg10 mi
4:00 AM57 °FMostly cloudy.24 mph90%29.22 "Hg10 mi
2:53 AM57 °FLight rain. Mostly cloudy.23 mph87%29.20 "Hg10 mi
1:53 AM56 °FLight rain. Overcast.21 mph87%29.22 "Hg8 mi
12:53 AM54 °FOvercast.21 mph93%29.26 "Hg10 mi
11:53 PM
Nov 23
53 °FLight rain. Mostly cloudy.22 mph93%29.31 "Hg9 mi
10:53 PM52 °FLight rain. Mostly cloudy.24 mph89%29.36 "Hg10 mi
9:53 PM53 °FMostly cloudy.23 mph89%29.43 "Hg10 mi
8:53 PM54 °FRain. Mostly cloudy.17 mph83%29.51 "Hg6 mi
7:53 PM56 °FLight rain. Overcast.17 mph72%29.56 "Hg9 mi
6:53 PM57 °FOvercast.14 mph62%29.60 "Hg10 mi
5:53 PM56 °FClear.15 mph65%29.66 "Hg10 mi
4:53 PM56 °FSunny.12 mph60%29.71 "Hg10 mi
3:53 PM55 °FSunny.15 mph62%29.75 "Hg10 mi
2:53 PM56 °FPassing clouds.17 mph60%29.79 "Hg10 mi
1:53 PM54 °FPassing clouds.10 mph59%29.85 "Hg10 mi
12:53 PM52 °FOvercast.10 mph64%29.90 "Hg10 mi
11:53 AM51 °FOvercast.9 mph66%29.94 "Hg10 mi
Weather by CustomWeather, © 2014

See weather overviewHow to use our weather pages